NJE450 LIEE-LXGB

Flight info

Callsign NJE450
Flight time N/A
Altitude 39000
Route LXGB
Aircraft CL60/M-SADE3FGHIJ3J4J7P2RWXY/HB1D1

Departure

Time 2026-05-08 17:30
Airport Cagliari Elmas Airport (LIEE)

Arrival

Time N/A
Airport Gibraltar Airport (LXGB)
Time Latitude Longitude Altitude Speed Heading
2026-05-08 17:03 39.24992 9.05985 20 ft 0 kts 227°
2026-05-08 17:25 39.24992 9.05984 19 ft 0 kts 227°
2026-05-08 17:25 39.24975 9.05960 19 ft 6 kts 227°
2026-05-08 17:26 39.24971 9.05901 19 ft 9 kts 314°
2026-05-08 17:26 39.25040 9.05826 19 ft 16 kts 321°
2026-05-08 17:26 39.25133 9.05719 19 ft 19 kts 317°
2026-05-08 17:26 39.25241 9.05593 20 ft 22 kts 318°
2026-05-08 17:27 39.25364 9.05448 20 ft 25 kts 318°
2026-05-08 17:27 39.25505 9.05290 20 ft 27 kts 318°
2026-05-08 17:27 39.25632 9.05142 20 ft 20 kts 317°
2026-05-08 17:27 39.25747 9.05008 20 ft 23 kts 318°
2026-05-08 17:28 39.25876 9.04860 20 ft 26 kts 317°
2026-05-08 17:28 39.26018 9.04693 20 ft 28 kts 317°
2026-05-08 17:28 39.26124 9.04552 20 ft 12 kts 283°
2026-05-08 17:28 39.26126 9.04424 20 ft 12 kts 244°
2026-05-08 17:29 39.26063 9.04370 20 ft 9 kts 163°
2026-05-08 17:29 39.26019 9.04420 20 ft 31 kts 137°
2026-05-08 17:29 39.25580 9.04931 20 ft 134 kts 137°
2026-05-08 17:29 39.24753 9.05884 524 ft 174 kts 139°
2026-05-08 17:30 39.23817 9.06912 1478 ft 191 kts 140°
2026-05-08 17:30 39.22759 9.08024 2495 ft 205 kts 142°
2026-05-08 17:30 39.21521 9.08669 3474 ft 189 kts 179°
2026-05-08 17:30 39.20161 9.08277 4038 ft 216 kts 208°
2026-05-08 17:31 39.19075 9.07029 5208 ft 218 kts 240°
2026-05-08 17:31 39.18653 9.05253 6621 ft 213 kts 272°
2026-05-08 17:31 39.18864 9.03421 7822 ft 221 kts 281°
2026-05-08 17:31 39.19201 9.01368 8552 ft 251 kts 281°
2026-05-08 17:32 39.19565 8.99133 9706 ft 262 kts 281°
2026-05-08 17:32 39.19933 8.96869 11001 ft 266 kts 281°
2026-05-08 17:32 39.20314 8.94520 11964 ft 281 kts 281°
2026-05-08 17:32 39.20732 8.91923 12431 ft 312 kts 281°
2026-05-08 17:33 39.21185 8.89111 13196 ft 329 kts 281°
2026-05-08 17:33 39.21652 8.86212 14187 ft 336 kts 280°
2026-05-08 17:33 39.22127 8.83262 15244 ft 340 kts 280°
2026-05-08 17:33 39.22601 8.80310 16320 ft 343 kts 280°
2026-05-08 17:34 39.23088 8.77269 17322 ft 346 kts 279°
2026-05-08 17:34 39.23570 8.74251 18333 ft 349 kts 279°
2026-05-08 17:34 39.24058 8.71192 19227 ft 354 kts 279°
2026-05-08 17:34 39.24554 8.68079 20056 ft 358 kts 279°
2026-05-08 17:35 39.25053 8.64939 20874 ft 361 kts 279°
2026-05-08 17:35 39.25551 8.61799 21689 ft 363 kts 279°
2026-05-08 17:35 39.26058 8.58600 22453 ft 367 kts 279°
2026-05-08 17:35 39.26569 8.55367 23179 ft 370 kts 278°
2026-05-08 17:36 39.27078 8.52132 23844 ft 374 kts 278°
2026-05-08 17:36 39.27596 8.48841 24522 ft 378 kts 278°
2026-05-08 17:36 39.28119 8.45515 25166 ft 382 kts 278°
2026-05-08 17:36 39.28642 8.42176 25749 ft 386 kts 278°
2026-05-08 17:37 39.29176 8.38760 26332 ft 390 kts 278°
2026-05-08 17:37 39.29711 8.35334 26897 ft 393 kts 278°
2026-05-08 17:37 39.30248 8.31887 27471 ft 396 kts 277°
2026-05-08 17:37 39.30791 8.28397 27954 ft 400 kts 277°
2026-05-08 17:38 39.31340 8.24853 28481 ft 402 kts 277°
2026-05-08 17:38 39.31889 8.21310 28988 ft 405 kts 277°
2026-05-08 17:38 39.32442 8.17732 29391 ft 408 kts 277°
2026-05-08 17:38 39.32995 8.14149 29814 ft 411 kts 277°
2026-05-08 17:39 39.33550 8.10540 30185 ft 413 kts 277°
2026-05-08 17:39 39.34110 8.06891 30603 ft 414 kts 277°
2026-05-08 17:39 39.34670 8.03243 31033 ft 414 kts 277°
2026-05-08 17:39 39.35238 7.99530 31423 ft 413 kts 277°
2026-05-08 17:40 39.35792 7.95904 31928 ft 410 kts 277°
2026-05-08 17:40 39.36348 7.92263 32505 ft 405 kts 277°
2026-05-08 17:40 39.36886 7.88725 33110 ft 399 kts 277°
2026-05-08 17:40 39.37425 7.85176 33714 ft 393 kts 277°
2026-05-08 17:41 39.37955 7.81674 34206 ft 389 kts 277°
2026-05-08 17:41 39.38471 7.78257 34664 ft 387 kts 277°
2026-05-08 17:41 39.38998 7.74754 34909 ft 386 kts 277°
2026-05-08 17:41 39.39509 7.71350 35150 ft 387 kts 277°
2026-05-08 17:42 39.40024 7.67913 35406 ft 387 kts 277°
2026-05-08 17:42 39.40540 7.64459 35682 ft 387 kts 277°
2026-05-08 17:42 39.41052 7.61030 35948 ft 387 kts 277°
2026-05-08 17:42 39.41561 7.57609 36234 ft 387 kts 277°
2026-05-08 17:43 39.42063 7.54228 36554 ft 386 kts 277°
2026-05-08 17:43 39.42571 7.50812 36906 ft 384 kts 277°
2026-05-08 17:43 39.43078 7.47385 37232 ft 383 kts 277°
2026-05-08 17:43 39.43582 7.43974 37531 ft 382 kts 277°
2026-05-08 17:44 39.44074 7.40635 37794 ft 382 kts 277°
2026-05-08 17:44 39.44574 7.37234 38059 ft 381 kts 277°
2026-05-08 17:44 39.45072 7.33842 38312 ft 381 kts 277°
2026-05-08 17:44 39.45562 7.30494 38594 ft 380 kts 276°
2026-05-08 17:45 39.46052 7.27142 38824 ft 380 kts 277°
2026-05-08 17:45 39.46538 7.23808 39015 ft 379 kts 276°
2026-05-08 17:45 39.47030 7.20433 39187 ft 379 kts 276°
2026-05-08 17:45 39.47516 7.17083 39391 ft 379 kts 276°
2026-05-08 17:46 39.47998 7.13755 39529 ft 378 kts 276°
2026-05-08 17:46 39.48488 7.10367 39634 ft 379 kts 277°
2026-05-08 17:46 39.48973 7.07008 39735 ft 380 kts 276°
2026-05-08 17:46 39.49450 7.03690 39828 ft 380 kts 276°
2026-05-08 17:47 39.50417 6.96950 39971 ft 381 kts 276°
2026-05-08 17:47 39.51226 6.91288 39999 ft 385 kts 276°
2026-05-08 17:48 39.52357 6.83342 40015 ft 385 kts 276°
2026-05-08 17:48 39.53317 6.76568 40005 ft 385 kts 277°
2026-05-08 17:49 39.54280 6.69744 39997 ft 383 kts 277°
2026-05-08 17:49 39.55233 6.62962 40012 ft 383 kts 277°
2026-05-08 17:50 39.56182 6.56168 39983 ft 384 kts 277°
2026-05-08 17:50 39.57128 6.49377 40020 ft 383 kts 277°
2026-05-08 17:51 39.58067 6.42597 40018 ft 385 kts 276°
2026-05-08 17:51 39.59005 6.35795 40007 ft 384 kts 276°
2026-05-08 17:52 39.59937 6.29005 39995 ft 385 kts 276°
2026-05-08 17:53 39.61331 6.18803 39999 ft 383 kts 276°
2026-05-08 17:53 39.62253 6.12012 40018 ft 383 kts 276°
2026-05-08 17:54 39.63178 6.05166 40006 ft 384 kts 276°
2026-05-08 17:54 39.64096 5.98344 40028 ft 385 kts 276°
2026-05-08 17:55 39.65008 5.91530 40022 ft 384 kts 276°
2026-05-08 17:55 39.65922 5.84676 39993 ft 384 kts 276°
2026-05-08 17:56 39.66826 5.77862 40014 ft 385 kts 276°
2026-05-08 17:56 39.67731 5.71013 40042 ft 383 kts 276°
2026-05-08 17:57 39.68631 5.64159 40021 ft 384 kts 276°
2026-05-08 17:57 39.69526 5.57317 40038 ft 385 kts 276°
2026-05-08 17:58 39.70419 5.50458 40018 ft 384 kts 276°
2026-05-08 17:58 39.71302 5.43636 40022 ft 384 kts 276°
2026-05-08 17:59 39.72179 5.36835 40010 ft 384 kts 276°
2026-05-08 17:59 39.73052 5.30034 40019 ft 384 kts 276°
2026-05-08 18:00 39.73928 5.23172 40019 ft 384 kts 276°
2026-05-08 18:00 39.75226 5.12950 40012 ft 384 kts 275°
2026-05-08 18:01 39.76089 5.06112 40022 ft 382 kts 276°
2026-05-08 18:01 39.76944 4.99301 40014 ft 382 kts 276°
2026-05-08 18:02 39.77655 4.93610 39996 ft 382 kts 275°
2026-05-08 18:02 39.78641 4.85674 40008 ft 382 kts 275°
2026-05-08 18:03 39.79483 4.78868 40007 ft 382 kts 275°
2026-05-08 18:03 39.80318 4.72080 39999 ft 383 kts 275°
2026-05-08 18:04 39.81153 4.65260 40008 ft 382 kts 275°
2026-05-08 18:04 39.81987 4.58409 40001 ft 383 kts 275°
2026-05-08 18:05 39.82812 4.51606 40000 ft 381 kts 275°
2026-05-08 18:05 39.83633 4.44797 40011 ft 382 kts 275°
2026-05-08 18:06 39.84457 4.37923 40001 ft 383 kts 276°
2026-05-08 18:06 39.85272 4.31088 39995 ft 384 kts 275°
2026-05-08 18:07 39.86004 4.24249 40000 ft 382 kts 270°
2026-05-08 18:07 39.85487 4.17424 39998 ft 378 kts 255°
2026-05-08 18:08 39.84124 4.10855 39986 ft 378 kts 255°
2026-05-08 18:08 39.82744 4.04251 39987 ft 378 kts 255°